SCP
0 0 0 0 0 0 0 0 0 0 0 0 0 1 1 1 1 0 0 0 1 1 0 0 0 1 1 1 1 1 1 1 1 1 1 1 1 1 1 1 0 0 0 0 0 0 0 0 0
0 0 0 0 0 0 0 0 0 0 0 0 0 1 1 1 1 0 0 0 1 1 0 0 1 1 1 1 1 1 1 1 1 1 1 1 1 1 1 0 0 0 0 0 0 0 0 0 0
0 0 0 0 0 0 0 0 0 0 0 0 0 1 1 1 1 0 0 1 1 1 0 0 1 1 1 1 1 1 1 1 1 1 1 1 1 1 1 0 0 0 0 0 0 0 0 0 0
0 0 0 0 0 0 0 0 0 0 0 0 0 1 1 1 1 0 1 1 1 1 0 0 1 1 1 1 1 1 1 1 1 1 1 1 1 1 1 0 0 0 0 0 0 0 0 0 0
0 0 0 0 0 0 1 1 1 1 0 0 1 1 1 1 1 1 1 1 1 1 1 1 1 1 1 1 1 1 1 1 1 1 1 1 1 1 1 1 1 0 0 0 0 0 1 1 1
0 0 0 0 0 0 1 1 1 1 1 1 1 1 1 1 1 1 1 1 1 1 1 1 1 1 1 1 1 1 1 1 1 1 1 1 1 1 1 1 1 1 1 1 1 1 1 1 1
0 0 0 0 0 0 1 1 1 1 1 1 1 1 1 1 1 1 1 1 1 1 1 1 1 1 1 1 1 1 1 1 1 1 1 1 1 1 1 1 1 1 1 1 1 1 1 1 1
0 0 0 0 0 0 1 1 1 1 1 1 1 1 1 2 1 1 1 1 1 1 1 1 1 1 1 1 1 2 2 1 1 1 1 1 1 1 1 1 1 1 1 1 1 1 1 1 1
0 0 0 0 0 0 1 1 1 1 2 2 2 2 2 3 2 2 2 2 2 1 1 1 1 1 1 2 2 2 2 1 2 2 2 1 1 1 1 1 1 1 1 1 1 1 1 1 2
0 0 0 0 0 0 1 1 1 1 2 2 3 3 4 4 3 3 3 2 2 2 1 1 2 2 2 2 2 2 2 1 2 2 2 2 1 1 1 1 1 1 1 1 1 1 2 2 2
0 0 0 0 0 1 1 2 2 2 2 3 3 4 4 4 4 3 3 3 2 2 1 1 2 2 2 2 2 2 2 2 1 2 2 2 2 2 2 2 2 2 2 2 2 2 2 2 2
0 0 0 1 1 1 2 3 3 3 3 3 3 4 4 4 4 3 3 3 2 2 2 2 2 2 2 2 2 3 3 2 1 1 2 2 2 2 2 2 2 2 2 2 2 2 2 2 2
0 1 1 1 2 2 3 4 4 4 3 3 4 4 4 3 3 3 4 5 3 2 2 1 1 2 2 2 2 3 2 2 1 1 1 2 2 2 2 2 2 2 2 2 2 2 2 3 3
0 1 1 1 2 3 4 5 4 4 4 4 4 3 3 3 2 2 4 6 4 2 1 1 1 1 1 1 1 2 1 1 1 1 1 2 2 2 2 2 2 2 2 2 2 2 2 3 3
0 0 1 1 2 3 4 4 4 4 4 4 4 3 3 2 2 2 3 4 3 1 1 1 1 1 1 1 1 1 1 1 1 1 1 1 1 1 1 1 1 1 1 2 1 1 2 2 2
0 0 0 0 1 2 2 3 3 3 3 3 3 3 2 2 1 1 1 1 1 1 1 1 1 1 0 0 0 0 0 0 0 0 1 1 1 1 1 1 1 1 1 1 1 1 2 2 2
0 0 0 0 1 1 1 2 2 2 2 3 3 3 2 2 1 1 1 1 1 0 0 0 0 0 0 0 0 0 0 0 0 0 1 1 1 1 1 1 1 1 1 1 1 1 1 1 1
0 0 0 0 1 1 1 1 2 2 2 2 2 2 2 1 1 1 1 0 0 0 0 0 0 0 0 0 0 0 0 0 0 0 0 0 1 1 0 0 0 1 1 1 1 1 1 1 1
0 0 0 0 0 1 1 1 2 2 2 2 2 1 1 1 1 0 0 0 0 0 0 0 0 0 0 0 0 0 0 0 0 0 0 0 0 0 0 0 0 0 0 0 0 0 1 1 1
0 0 0 0 0 1 1 1 1 2 2 1 1 1 1 0 0 0 0 0 0 0 0 0 0 0 0 0 0 0 0 0 0 0 0 0 0 0 0 0 0 0 0 0 0 0 0 0 0
0 0 0 0 0 0 1 1 1 1 1 1 1 0 0 0 0 0 0 0 0 0 0 0 0 0 0 0 0 0 0 0 0 0 0 0 0 0 0 0 0 0 0 0 0 0 0 0 0
0 0 0 0 0 0 0 0 0 0 0 0 0 0 0 0 0 0 0 0 0 0 0 0 0 0 0 0 0 0 0 0 0 0 0 0 0 0 0 0 0 0 0 0 0 0 0 0 0
0 0 0 0 0 0 0 0 0 0 0 0 0 0 0 0 0 0 0 0 0 0 0 0 0 0 0 0 0 0 0 0 0 0 0 0 0 0 0 0 0 0 0 0 0 0 0 0 0
0 0 0 0 0 0 0 0 0 0 0 0 0 0 0 0 0 0 0 0 0 0 0 0 0 0 0 0 0 0 0 0 0 0 0 0 0 0 0 0 0 0 0 0 0 0 0 0 0
0 0 0 0 0 0 0 0 0 0 0 0 0 0 0 0 0 0 0 0 0 0 0 0 0 0 0 0 0 0 0 0 0 0 0 0 0 0 0 0 0 0 0 0 0 0 0 0 0
0 0 0 0 0 0 0 0 0 0 0 0 0 0 0 0 0 0 0 0 0 0 0 0 0 0 0 0 0 0 0 0 0 0 0 0 0 0 0 0 0 0 0 0 0 0 0 0 0
0 0 0 0 0 0 0 0 0 0 0 0 0 0 0 0 0 0 0 0 0 0 0 0 0 0 0 0 0 0 0 0 0 0 0 0 0 0 0 0 0 0 0 0 0 0 0 0 0
0 0 0 0 0 0 0 0 0 0 0 0 0 0 0 0 0 0 0 0 0 0 0 0 0 0 0 0 0 0 0 0 0 0 0 0 0 0 0 0 0 0 0 0 0 0 0 0 0
0 0 0 0 0 0 0 0 0 0 0 0 0 0 0 0 0 0 0 0 0 0 0 0 0 0 0 0 0 0 0 0 0 0 0 0 0 0 0 0 0 0 0 0 0 0 0 0 0
0 0 0 0 0 0 0 0 0 0 0 0 0 0 0 0 0 0 0 0 0 0 0 0 0 0 0 0 0 0 0 0 0 0 0 0 0 0 0 0 0 0 0 0 0 0 0 0 0
Wind_Speed
12 6 2 2 2 1 4 5 4 3 2 3 5 7 7 5 2 3 2 8 12 11 8 10 12 13 14 15 15 15 15 15 14 14 13 13 13 13 12 12 12 11 10 10 9 8 8 8 8
7 4 2 2 2 2 5 4 3 2 1 2 5 6 7 6 4 7 5 8 13 11 7 8 13 13 13 14 14 14 14 14 13 13 12 12 12 11 11 11 10 10 10 9 9 8 8 8 8
6 2 3 2 0 3 5 3 1 2 3 3 4 5 5 4 4 5 6 13 12 9 6 8 14 13 13 13 13 13 13 12 12 12 11 11 11 10 10 10 9 9 9 9 8 8 8 8 8
4 2 3 2 4 6 6 6 2 1 4 6 4 5 5 5 2 7 13 14 13 8 6 8 13 13 12 12 12 12 12 11 11 10 10 10 10 9 9 9 9 9 8 8 8 8 8 8 8
2 3 3 2 6 6 5 5 0 2 3 5 5 5 4 6 9 13 13 14 13 8 5 6 12 12 12 11 11 11 11 10 10 10 9 9 9 9 9 9 9 8 8 8 8 8 8 8 8
3 3 3 2 6 5 4 6 5 6 3 4 4 4 3 4 8 10 11 11 11 9 6 5 11 11 11 10 10 10 10 10 9 9 9 9 9 9 9 9 9 9 9 8 8 8 9 8 8
4 3 2 3 4 4 5 5 6 4 5 5 3 4 3 4 5 8 9 10 9 7 5 4 4 5 8 9 9 9 9 9 8 9 9 8 8 8 8 8 9 9 10 9 9 9 10 10 9
4 4 1 2 2 3 4 3 4 6 3 4 4 4 3 4 8 9 9 8 7 6 5 4 4 3 2 2 6 7 8 8 8 8 8 9 9 9 9 8 8 10 10 10 11 11 11 11 11
4 4 2 4 2 2 2 3 4 5 5 5 6 3 4 11 11 10 9 7 6 5 4 3 3 2 2 1 3 5 6 6 7 6 8 8 3 3 4 7 9 11 11 12 12 12 13 12 12
4 3 7 5 4 2 1 3 3 5 6 6 6 8 10 11 10 9 8 7 5 5 3 2 2 2 1 1 0 1 1 1 2 2 3 2 1 2 4 5 10 11 11 12 12 13 13 10 5
6 6 6 5 4 3 2 3 4 5 6 4 4 7 8 9 7 7 7 6 4 4 4 2 2 1 1 0 1 1 1 1 1 2 2 1 1 1 2 1 3 4 6 4 6 6 4 5 4
4 6 4 3 1 3 4 5 6 7 6 6 7 7 9 9 8 7 7 6 6 6 4 3 3 2 2 2 1 1 0 1 1 1 2 1 0 1 1 1 2 2 2 3 3 3 4 5 6
4 3 2 2 5 7 10 8 8 7 8 9 10 10 10 10 8 8 7 6 7 6 5 4 4 4 3 3 2 2 2 1 1 2 1 1 1 1 1 1 1 2 2 2 3 3 4 5 6
2 2 4 5 7 5 11 7 6 5 6 9 9 8 8 8 8 7 7 7 6 6 5 4 5 4 4 3 2 1 1 1 1 2 2 2 0 0 0 1 1 1 2 2 2 3 4 4 4
1 3 5 5 4 3 7 7 3 3 6 7 7 7 7 6 6 6 5 5 5 4 3 3 4 4 4 3 2 2 1 1 1 1 2 2 1 1 1 1 1 1 2 2 2 3 3 3 4
2 4 3 2 2 2 6 3 2 2 6 6 6 6 6 4 4 4 5 5 4 4 3 2 4 3 3 3 2 2 1 2 2 2 2 2 1 1 0 1 1 1 1 2 2 2 2 3 3
4 2 1 0 1 2 4 4 4 3 5 6 5 5 6 5 4 4 5 5 5 4 4 3 3 3 3 2 2 2 2 2 2 2 2 2 2 2 1 1 2 2 2 2 2 2 2 3 4
2 2 2 2 1 3 4 3 4 2 3 4 4 4 5 6 6 6 5 5 4 4 3 3 2 2 2 2 2 2 2 2 2 2 2 3 3 3 2 2 2 2 2 2 2 2 2 3 3
3 3 3 1 1 3 4 3 3 2 2 3 3 4 5 6 5 5 5 5 4 4 3 3 2 2 1 1 1 1 1 2 2 2 3 3 3 3 2 2 3 2 2 3 3 2 2 2 2
3 3 3 2 2 3 2 2 2 2 3 3 4 5 6 5 4 5 5 5 5 5 5 4 3 2 1 1 1 1 0 1 2 2 3 4 4 4 3 3 3 3 2 3 2 1 1 2 1
2 3 4 4 3 4 2 1 2 2 2 3 5 5 6 7 8 7 7 7 6 6 6 5 4 3 2 2 1 1 2 2 3 3 3 3 4 4 4 4 3 3 2 3 3 2 2 2 2
1 1 5 6 4 3 4 2 3 1 2 3 5 5 6 7 7 6 7 7 7 7 5 5 4 4 3 2 1 1 1 2 3 2 3 5 4 4 4 4 3 3 2 3 3 2 2 2 2
3 6 7 6 5 3 4 2 6 1 2 4 5 5 7 7 7 7 7 7 6 5 4 4 4 3 3 2 2 2 2 3 3 3 4 5 4 4 4 4 3 3 2 3 3 2 2 2 2
7 7 7 7 5 3 1 1 6 3 5 4 4 5 6 5 5 5 4 4 3 3 3 3 3 3 2 2 2 3 4 4 4 5 4 4 3 4 4 4 3 3 2 3 3 3 3 3 3
5 7 5 5 4 3 1 1 8 7 6 6 6 6 5 4 4 4 4 4 4 4 3 3 3 3 2 3 3 4 5 5 5 5 4 4 3 3 5 4 3 3 3 4 3 3 3 3 4
3 7 6 3 3 3 1 4 8 6 5 5 6 5 3 3 4 5 5 5 5 4 4 3 3 3 3 3 4 4 4 4 4 5 4 4 4 5 6 5 5 5 4 4 3 3 4 3 4
5 3 5 7 2 1 4 6 8 3 3 4 4 4 4 4 4 5 5 4 4 4 3 4 3 4 4 4 5 5 5 4 5 5 4 4 5 5 6 5 5 5 5 5 4 4 5 4 4
4 8 6 6 4 1 4 4 5 6 6 4 4 5 5 4 4 4 4 3 2 2 2 2 3 4 5 5 5 4 5 5 5 4 5 6 6 5 6 6 6 6 6 5 4 5 5 5 5
3 4 6 5 5 6 3 8 8 8 7 7 7 6 7 7 6 4 3 2 2 2 2 3 3 4 5 5 5 5 5 5 5 5 6 6 6 6 6 7 7 7 7 6 5 6 6 6 6
1 4 7 5 3 4 4 10 6 7 7 7 7 6 6 5 4 3 2 2 2 3 3 4 4 5 6 5 5 5 5 5 5 6 7 6 7 7 7 7 7 8 8 7 6 8 7 7 7
Wind_Direction
137 130 120 87 48 6 272 257 250 297 357 17 54 78 84 69 80 121 110 127 129 137 143 147 144 140 136 133 131 129 130 131 132 134 137 140 145 149 153 157 160 162 161 158 154 150 146 144 142
137 142 83 68 58 328 282 250 265 291 149 110 64 73 71 68 77 109 125 135 136 136 135 146 148 144 141 138 136 135 135 137 138 140 143 147 150 154 158 162 165 166 166 165 163 159 155 152 150
151 137 91 78 223 243 278 287 306 22 54 45 54 59 71 87 122 132 140 137 130 129 130 154 151 148 145 142 140 141 141 143 145 147 150 153 157 161 166 168 172 175 176 174 172 170 166 162 160
139 67 65 65 264 248 254 280 278 3 22 35 60 56 51 30 108 129 134 136 130 124 130 156 151 151 150 149 148 149 150 152 155 157 160 164 168 174 177 180 184 188 190 188 185 181 178 174 172
80 87 65 333 269 265 272 292 196 89 42 35 57 70 36 23 87 119 132 138 135 127 128 149 151 152 154 155 157 157 159 163 167 170 175 179 184 189 192 194 199 204 206 204 199 194 189 186 185
74 77 83 292 284 290 329 359 57 68 56 35 47 81 55 78 105 123 131 134 135 131 122 137 153 155 159 162 164 166 168 173 178 183 189 195 200 205 208 209 211 216 219 218 214 208 201 199 198
116 118 184 253 288 318 351 12 42 51 49 24 30 88 88 98 109 116 120 122 124 122 112 108 127 149 162 168 173 177 180 185 191 197 202 207 212 217 222 223 223 225 228 228 226 221 215 209 209
141 116 264 267 267 310 337 29 47 43 46 22 35 110 149 136 115 109 108 111 116 111 103 97 95 98 112 163 188 191 194 199 204 212 218 222 225 228 232 232 236 238 238 238 236 232 227 220 215
114 83 244 239 217 263 358 44 54 56 54 41 37 58 118 124 117 112 111 110 118 117 91 85 90 91 95 147 217 211 214 217 220 228 235 236 242 252 253 250 248 249 248 245 242 240 236 231 227
117 161 230 228 207 180 89 67 66 69 47 38 42 59 96 117 120 121 124 125 126 128 112 83 93 105 120 207 275 300 279 261 239 247 256 260 255 256 258 268 264 263 261 259 252 246 244 240 229
167 202 241 254 232 178 123 74 44 90 58 44 84 90 97 105 105 108 106 106 112 117 107 112 110 105 126 31 25 5 348 331 321 286 266 259 261 273 276 285 283 286 283 279 275 262 244 236 225
183 245 242 275 191 133 118 101 67 59 83 88 92 94 94 94 89 91 97 101 101 93 80 69 84 92 64 34 16 2 16 359 332 294 282 262 248 259 268 275 289 287 285 286 279 267 254 244 233
211 273 319 6 80 92 92 84 94 86 95 96 94 88 90 94 88 82 90 93 93 90 78 63 66 78 82 66 31 35 26 18 356 335 334 294 230 258 268 270 288 291 290 284 283 272 265 256 246
205 107 54 50 75 75 97 83 83 103 108 101 97 93 93 98 104 100 98 99 99 97 90 82 76 81 85 85 80 62 40 24 21 4 352 358 14 297 318 319 319 308 302 292 284 279 273 264 254
131 92 51 36 61 103 92 58 63 125 118 108 107 107 103 99 104 110 113 114 115 112 108 101 93 86 94 94 90 81 59 45 30 3 355 8 25 16 7 347 325 313 311 305 295 288 276 269 261
50 67 69 8 71 117 98 126 190 153 138 131 128 126 119 112 118 122 128 131 136 137 136 130 121 118 118 119 102 81 60 49 26 6 360 359 352 355 14 314 299 308 314 312 304 293 291 281 274
29 86 151 235 41 119 122 163 196 186 154 150 150 150 144 145 148 157 158 159 164 168 168 161 150 146 126 103 81 64 47 34 14 6 359 350 347 348 354 308 303 320 321 318 311 310 285 285 286
232 193 179 201 14 85 113 149 164 176 175 168 165 167 168 176 185 183 178 178 182 187 187 175 163 144 113 88 64 37 25 13 10 4 350 347 346 348 346 316 315 329 320 312 310 297 283 270 281
178 160 166 158 67 84 106 134 177 195 198 183 185 195 200 204 203 191 186 187 189 200 203 204 189 183 141 89 73 37 344 334 340 338 342 341 341 343 333 317 314 313 288 285 296 293 298 290 297
164 148 149 100 57 98 123 158 194 202 211 205 198 213 214 211 210 208 204 203 206 210 214 215 213 206 195 160 151 161 246 301 293 309 322 331 341 338 334 324 306 297 283 289 290 277 300 296 315
191 176 172 151 113 64 92 37 197 210 221 217 214 219 221 214 212 213 210 215 217 220 217 215 214 212 210 184 112 51 19 350 336 325 320 323 327 324 319 312 302 291 258 261 266 253 238 275 300
264 187 134 121 98 25 35 328 297 266 263 231 225 225 226 227 222 217 213 218 221 225 213 206 208 211 212 180 161 186 239 271 270 280 291 304 309 312 311 308 306 295 270 258 261 240 226 225 267
94 72 86 89 92 50 27 26 297 340 273 254 241 238 236 230 222 220 218 218 219 212 199 200 200 211 210 192 189 208 243 250 275 289 292 297 302 303 304 303 301 301 285 272 264 258 232 220 229
119 76 59 51 61 21 345 80 290 260 233 251 244 239 240 235 223 215 208 195 195 178 173 176 185 218 224 217 217 221 248 267 283 288 289 293 298 300 303 301 293 291 288 287 279 258 243 231 233
81 84 39 7 14 272 264 234 255 253 234 230 242 248 247 228 210 196 187 182 181 177 177 175 183 227 242 242 248 244 248 254 257 267 271 280 288 290 294 302 291 285 282 285 283 272 262 243 236
150 129 151 194 226 281 310 254 257 252 246 237 239 246 246 221 202 194 189 183 183 184 176 174 192 232 250 254 262 263 255 247 251 255 255 261 262 270 278 283 279 276 276 281 278 273 269 255 247
136 137 144 121 111 3 298 291 301 260 254 237 232 223 222 209 197 190 182 180 183 183 187 194 207 239 257 260 265 268 261 251 256 263 261 262 263 271 273 277 279 277 273 268 265 260 267 268 260
125 137 104 108 128 278 303 286 255 255 241 227 212 205 204 190 191 187 183 185 193 202 213 221 226 242 258 263 261 262 260 260 261 266 269 268 269 270 278 279 278 278 276 270 261 259 260 261 262
116 95 101 104 142 149 242 268 228 222 223 219 221 207 196 195 197 198 200 204 215 235 243 253 258 262 269 269 268 271 273 275 275 270 270 272 274 275 274 276 278 278 278 273 262 259 258 254 260
181 160 148 147 191 165 178 265 257 231 231 216 217 207 200 197 195 194 201 211 237 254 261 264 268 269 268 268 270 270 274 280 280 276 275 275 277 278 275 277 278 278 277 271 265 265 264 253 255